Miscellaneous Local Product
Issued by NWS North Platte, NE

Home | Current Version | Previous Version | Graphics & Text | Print | Product List | Glossary On
Versions: 1 2 3 4 5 6 7 8 9 10 11 12 13 14 15 16 17 18 19 20 21 22 23 24 25 26 27 28 29 30 31 32 33 34 35 36 37 38 39 40 41 42 43 44 45 46 47 48 49 50
000
AXUS43 KLBF 251910
MISLBF


WESTERN AND NORTH CENTRAL NEBRASKA HOURLY WEATHER ROUNDUP
NATIONAL WEATHER SERVICE NORTH PLATTE NE
100 PM CST SAT FEB 25 2017

NOTE: "FAIR" INDICATES FEW OR NO CLOUDS BELOW 12,000 FEET WITH NO
SIGNIFICANT WEATHER AND/OR OBSTRUCTIONS TO VISIBILITY.

NOTE: STATIONS NOT REPORTING VARIABLES SUCH AS SKY/WEATHER OR
PRESSURE ARE PROVIDED BY RAWS AND APRS NETWORKS AND ARE NOT UNDER
NATIONAL WEATHER SERVICE QUALITY CONTROL.

...OBSERVATIONS IN AND NEAR THE EASTERN PANHANDLE OF NEBRASKA...

CITY           SKY/WX    TMP DP  RH WIND       PRES   REMARKS
PINE RIDGE     SUNNY     27  19  72 W15       29.89S WCI  15
CHADRON        CLOUDY    27  18  69 W18       29.90F WCI  14
ALLIANCE       SUNNY     22  14  71 W17       29.88F WCI   8
SIDNEY         SUNNY     28  12  51 NW16      29.91F WCI  16
CRESCENT LAKE    N/A     26  13  57 W16G23      N/A  WCI  14
$$

...OBSERVATIONS IN NORTHERN NEBRASKA AND FAR SOUTHERN SOUTH DAKOTA...

CITY           SKY/WX    TMP DP  RH WIND       PRES   REMARKS
WINNER         FAIR      27  17  66 SW10      29.87F WCI  17
VALENTINE      SUNNY     23  13  65 W13       29.88F WCI  11
THEDFORD       SUNNY     27  17  67 W9        29.90F WCI  17
AINSWORTH      SUNNY     26  18  72 W10       29.88F WCI  16
O`NEILL        SUNNY     28  18  66 SW18      29.93F WCI  15
ORD            SUNNY     30  18  60 SW13      29.95F WCI  20
BROKEN BOW     SUNNY     29  20  69 SW12      29.92F WCI  19
VALENTINE NWR    N/A     25  19  76 W7          N/A  WCI  17
BUTTE            N/A     25  19  76 SW8         N/A  WCI  16
HALSEY           N/A     31  16  52 W6          N/A  WCI  25
CHAMBERS         N/A     31  15  51 SW8         N/A  WCI  24
EWING            N/A     29  20  70 S14         N/A  WCI  18
$$

...OBSERVATIONS IN SOUTHWEST NEBRASKA AND FAR NORTHEAST COLORADO...

CITY           SKY/WX    TMP DP  RH WIND       PRES   REMARKS
HOLYOKE        FAIR      34  19  55 NW15      29.94F WCI  24
IMPERIAL       SUNNY     32  17  54 W14       29.96F WCI  22
OGALLALA       SUNNY     31  17  57 NW16G25   29.94F WCI  20
NORTH PLATTE   SUNNY     29  19  66 W12       29.94F WCI  19
MCCOOK         MOSUNNY   39  24  55 W15G23    29.96F WCI  31
LEXINGTON      SUNNY     33  22  64 W14       29.97F WCI  23
STAPLETON        N/A     30  21  68 CALM        N/A
GOTHENBURG       N/A     33  17  51 W7          N/A  WCI  27
CALLAWAY         N/A     29  21  72 SW12        N/A  WCI  19
$$

...OBSERVATIONS IN CENTRAL LINCOLN COUNTY AREA...

CITY           SKY/WX    TMP DP  RH WIND       PRES   REMARKS
N.P. AIRPORT   SUNNY     29  19  66 W12       29.94F WCI  19
N.P. DOWNTOWN    N/A     18  11  74 W3          N/A
N.P. SOUTHEAST   N/A     29  19  65 W5          N/A  WCI  24
N.P. HILLCREST   N/A     28  19  69 W10         N/A  WCI  19
$$

...SOME OBSERVATIONS FROM AROUND THE REGION...

CITY           SKY/WX    TMP DP  RH WIND       PRES   REMARKS
LARAMIE        CLOUDY    17   5  59 SW18      29.79F WCI   1
CHEYENNE       CLOUDY    23   4  44 NW14G29   29.83F WCI  11
DENVER         CLOUDY    33   3  28 S6        29.85F WCI  28
AKRON          CLOUDY    29  17  61 NW8       29.91F WCI  21
SCOTTSBLUFF    SUNNY     21  10  62 NW8       29.92F WCI  11
RAPID CITY     MOSUNNY   33  15  47 N6        29.83F WCI  28
BISMARCK       CLOUDY    27  21  78 NW10      29.86S WCI  17
PIERRE         CLOUDY    36  20  52 SW9       29.84F WCI  29
SIOUX FALLS    CLOUDY    26  17  68 SW14G20   29.97F WCI  14
OMAHA          CLOUDY    30  15  53 SW9       30.10F WCI  22
GRAND ISLAND   SUNNY     30  21  69 S14       30.01F WCI  19
KANSAS CITY    MOSUNNY   38  12  34 VRB7      30.15F WCI  33
WICHITA        PTSUNNY   38  13  35 SW5       30.16F WCI  34
OKLAHOMA CITY  SUNNY     43  13  29 VRB3      30.21F
DALLAS         SUNNY     49  21  33 N8        30.22F
AMARILLO       SUNNY     44  19  36 S18G28    30.08F
DODGE CITY     SUNNY     42  14  32 S17G23    30.05F
HAYS           MOSUNNY   40  21  46 SW12      30.06F WCI  33
GOODLAND       SUNNY     38  10  31 NW8       29.94F WCI  32
$$




USA.gov is the U.S. government's official web portal to all federal, state and local government web resources and services.